Location: ??? ?????
(30.6482°N, 60.5850°E)
Time: 18:53:17
(UTC+00:00)

SL-8 R/B - Pass Details

Date: 09 April 2020
Orbit: 656 x 667 km, 48.4° (Epoch: 06 June)

Event Time Altitude Azimuth Distance (km) Brightness Sun altitude
Rises 15:05:56 0° 314° (NW) 2,979 8.3 -10.1°
Reaches altitude 10° 15:08:19 10° 318° (NW) 2,064 7.2 -10.6°
Maximum altitude 15:13:02 62° 39° (NE) 738 3.8 -11.5°
Enters shadow 15:16:35 17° 117° (ESE) 1,629 5.1 -12.3°
